Погода в Эрдемли

Турция     36°36′28″N   34°18′49″E
темп.,
°C
ветер,
м/с
пор.,
м/с
влажн.,
%
обл.,
%
осадки,
мм/ч
давл.,
гПа
погр.,
м
13 июня, вс
вс1300:00+22ссв57770 0.0 1010332
03:00+22ссв78810 0.0 1011448
06:00+21св67810 0.0 1011406
09:00+23св56720 0.0 1012555
12:00+25в33630 0.0 1012650
15:00+25ю33650 0.0 1010534
18:00+26ююз66550 0.0 1009538
21:00+23юз45640 0.0 1009118
14 июня, пн
пн1400:00+22юз44680 0.0 1009175
03:00+21ссз12730 0.0 1008171
06:00+21св45840 0.0 1009336
09:00+23всв54766 0.0 1009754
12:00+24ю32651 0.0 1009912
15:00+25ююз77560 0.0 1008986
18:00+24юз89610 0.0 1008839
21:00+22юз56770 0.0 1009348
15 июня, вт
вт1500:00+21юз34790 0.0 1009329
03:00+21с22813 0.0 1009275
06:00+21ссв457529 0.0 1009355
09:00+23всв44672 0.0 1010889
12:00+24ю536517 0.1 1010923
15:00+25ююз76570 0.1 1009881
18:00+24юз78690 0.0 1009817
21:00+22юз56770 0.0 1009392
16 июня, ср
ср1600:00+21юз34770 0.0 1009282
03:00+21с33780 0.0 1009214
06:00+21ссв45840 0.0 1010315
09:00+23всв44682 0.0 1010775
12:00+24ю436510 0.0 1011739
15:00+25юз98550 0.1 1010912
18:00+24юз910610 0.0 1010880
21:00+22юз67750 0.0 1010426
17 июня, чт
чт1700:00+23сз24490 0.0 1010243
03:00+20ссв22660 0.0 1011183
06:00+21с22650 0.0 1012222
09:00+23вюв21580 0.0 1012531
12:00+24ю43560 0.0 1013600
15:00+25ююз66500 0.0 1012671
18:00+25ююз68570 0.0 1012515
21:00+23юз55730 0.0 1013248